{"data":{"norad_id":61538,"epoch":"2026-09-21T17:54:00.834336Z","epoch_age_seconds":84677,"freshness":"FRESH","line1":"1 61538U 24184G   26264.74584299 -.00000486  00000+0  83992-6 0  9995","line2":"2 61538  53.1580 349.5197 0000797 113.6040 246.5061 15.69705325111216","mean_motion":15.69705325,"eccentricity":7.97e-5,"inclination_deg":53.158,"raan_deg":349.5197,"arg_perigee_deg":113.604,"mean_anomaly_deg":246.5061,"bstar":8.3992e-7,"rev_number":11121,"period_min":91.73696343293,"perigee_km":359.20311970635,"apogee_km":360.27713732063,"semimajor_km":6737.8771285135,"source":"CELESTRAK","updated_at":"2026-09-22T09:00:49.364839Z"}}